Weather History for Caslav, Czech Republic

Change the Weather History Date:

Thursday, September 13, 2012

  Actual Average Record
Temperature  
Mean Temperature 54 °F -  
Max Temperature 59 °F - - ()
Min Temperature 48 °F - - ()
Degree Days  
Heating Degree Days 12    
Growing Degree Days 4 (Base 50)    
Moisture  
Dew Point 49 °F    
Average Humidity 88    
Maximum Humidity 100    
Minimum Humidity 63    
Precipitation  
Precipitation 0.00 in - - ()
Sea Level Pressure  
Sea Level Pressure 29.94 in    
Wind  
Wind Speed 4 mph ()    
Max Wind Speed 17 mph    
Max Gust Speed -    
Visibility 5.4 miles    
Events Rain    
T = Trace of Precipitation, MM = Missing Value Source: Averaged Metar Reports

Daily Weather History Graph

Daily Weather History Graph

Search for Another Location

Airport:

Trip Planner

Search our weather history database for the weather conditions in past years. The results will help you decide how hot, cold, wet, or windy it might be!

Date:

Astronomy

Sep. 13, 2012 Rise Set
Actual Time 6:31 AM CEST 7:15 PM CEST
Civil Twilight 5:59 AM CEST 7:48 PM CEST
Nautical Twilight 5:20 AM CEST 8:27 PM CEST
Astronomical Twilight 4:38 AM CEST 9:08 PM CEST
Moon 3:19 AM CEST (9/13) 5:37 PM CEST (9/13)
Length of Visible Light 13h 49m
Length of Day
12h 44m
Waning Crescent, 9% of the Moon is Illuminated
Sep 13
Waning Crescent
Sep 16
New
Sep 22
First Quarter
Sep 30
Full
Oct 8
Last Quarter

Hourly Weather History & Observations

Time (CEST) Temp. Dew Point Humidity Pressure Visibility Wind Dir Wind Speed Gust Speed Precip Events Conditions
12:00 AM 50.0 °F 48.2 °F 94% 29.89 in 6.2 mi Calm Calm - N/A Rain Light Rain
1:00 AM 50.0 °F 48.2 °F 94% 29.89 in 6.2 mi West 1.2 mph - N/A Rain Light Rain
2:00 AM 50.0 °F 48.2 °F 94% 29.89 in 6.2 mi West 2.3 mph - N/A Rain Light Rain
3:00 AM 50.0 °F 48.2 °F 94% 29.86 in 6.2 mi NW 3.5 mph - N/A Rain Light Rain
4:00 AM 50.0 °F 48.2 °F 94% 29.86 in 6.2 mi NW 3.5 mph - N/A Rain Light Rain
5:00 AM 50.0 °F 48.2 °F 94% 29.86 in 6.2 mi NW 6.9 mph - N/A Rain Light Rain
6:00 AM 50.0 °F 48.2 °F 94% 29.89 in 6.2 mi NW 4.6 mph - N/A Rain Light Rain
7:00 AM 48.2 °F 48.2 °F 100% 29.89 in 5.0 mi WNW 3.5 mph - N/A Rain Rain
8:00 AM 50.0 °F 50.0 °F 100% 29.92 in 2.8 mi WNW 3.5 mph - N/A Rain Light Rain
9:00 AM 51.8 °F 50.0 °F 94% 29.92 in 2.8 mi NW 9.2 mph - N/A Rain Light Rain
9:18 AM 51.8 °F 50.0 °F 94% 29.92 in 3.7 mi NNW 8.1 mph - N/A Rain Light Rain
10:00 AM 51.8 °F 50.0 °F 94% 29.92 in 4.3 mi NNW 9.2 mph - N/A Rain Light Rain
10:33 AM 51.8 °F 50.0 °F 94% 29.92 in 5.0 mi NW 6.9 mph - N/A Rain Light Rain
11:00 AM 51.8 °F 50.0 °F 94% 29.95 in 5.0 mi NW 9.2 mph - N/A   Overcast
12:00 PM 55.4 °F 50.0 °F 82% 29.92 in 5.0 mi NNW 10.4 mph - N/A   Mostly Cloudy
1:00 PM 55.4 °F 50.0 °F 82% 29.92 in 6.2 mi NW 17.3 mph - N/A   Overcast
2:00 PM 53.6 °F 50.0 °F 88% 29.95 in 6.2 mi Variable 2.3 mph - N/A   Overcast
3:00 PM 55.4 °F 50.0 °F 82% 29.95 in 6.2 mi NE 4.6 mph - N/A   Overcast
4:00 PM 57.2 °F 50.0 °F 77% 29.98 in 6.2 mi East 3.5 mph - N/A   Mostly Cloudy
5:00 PM 59.0 °F 46.4 °F 63% 29.98 in - North 5.8 mph - N/A   Clear
6:00 PM 57.2 °F 46.4 °F 67% 29.98 in - NNW 6.9 mph - N/A   Clear
7:00 PM 57.2 °F 46.4 °F 67% 30.01 in - NNW 6.9 mph - N/A   Clear
8:00 PM 55.4 °F 46.4 °F 72% 30.01 in - NNW 5.8 mph - N/A   Clear
9:00 PM 51.8 °F 48.2 °F 88% 30.04 in - West 4.6 mph - N/A   Clear
10:00 PM 48.2 °F 46.4 °F 93% 30.06 in - West 3.5 mph - N/A   Clear
11:00 PM 48.2 °F 46.4 °F 93% 30.06 in 6.2 mi WSW 1.2 mph - N/A   Unknown